Patrick Air Force Base, FL

2:15 PM EDT on August 26, 2016 (GMT -0400)
Patrick Air Force Base

Weather History for KCOF - October, 2013

Change the Weather History Date:

Thursday, October 31, 2013

  Actual Average Record
Temperature  
Mean Temperature 80 °F -  
Max Temperature 84 °F 77 °F 84 °F (2003)
Min Temperature 77 °F 67 °F 54 °F (2012)
Cooling Degree Days 16    
Growing Degree Days 30 (Base 50)    
Moisture  
Dew Point 68 °F    
Average Humidity 68    
Maximum Humidity 81    
Minimum Humidity 57    
Precipitation  
Precipitation 0.00 in - - ()
Sea Level Pressure  
Sea Level Pressure 30.10 in    
Wind  
Wind Speed 13 mph (SE)    
Max Wind Speed 15 mph    
Max Gust Speed 20 mph    
Visibility 10 miles    
Events      
Averages and records for this station are not official NWS values.
T = Trace of Precipitation, MM = Missing Value Source: NWS Daily Summary

Daily Weather History Graph

Daily Weather History Graph

Search for Another Location

Airport or City:

Trip Planner

Search our weather history database for the weather conditions in past years. The results will help you decide how hot, cold, wet, or windy it might be!

Date:

Astronomy

Oct. 31, 2013 Rise Set
Actual Time 7:33 AM EDT 6:38 PM EDT
Civil Twilight 7:09 AM EDT 7:02 PM EDT
Nautical Twilight 6:41 AM EDT 7:30 PM EDT
Astronomical Twilight 6:13 AM EDT 7:57 PM EDT
Moon 4:35 AM EDT (10/31) 4:43 PM EDT (10/31)
Length of Visible Light 11h 53m
Length of Day
11h 04m
Waning Crescent, 10% of the Moon is Illuminated
Oct 31
Waning Crescent
Nov 3
New
Nov 10
First Quarter
Nov 17
Full
Nov 25
Last Quarter

Hourly Weather History & Observations

Time (EDT) Temp. Heat Index Dew Point Humidity Pressure Visibility Wind Dir Wind Speed Gust Speed Precip Events Conditions
12:58 AM 78.3 °F - 67.3 °F 69% 30.14 in 10.0 mi SE 15.0 mph - N/A   Scattered Clouds
1:58 AM 77.5 °F - 65.3 °F 66% 30.14 in 10.0 mi ESE 13.8 mph - N/A   Scattered Clouds
2:58 AM 77.5 °F - 65.5 °F 66% 30.14 in 10.0 mi East 11.5 mph - N/A   Clear
3:58 AM 77.4 °F - 65.5 °F 67% 30.12 in 10.0 mi East 8.1 mph - N/A   Clear
4:08 AM 77.0 °F - 68.0 °F 74% 30.11 in 10.0 mi East 15.0 mph 19.6 mph N/A   Light Drizzle
4:19 AM 77.0 °F - 68.0 °F 74% 30.11 in 10.0 mi East 8.1 mph - N/A   Mostly Cloudy
4:58 AM 77.2 °F - 64.9 °F 66% 30.12 in 10.0 mi East 10.4 mph - 0.00 in   Partly Cloudy
5:58 AM 77.5 °F - 65.1 °F 65% 30.12 in 10.0 mi East 11.5 mph - N/A   Scattered Clouds
6:58 AM 77.5 °F - 65.1 °F 65% 30.14 in 10.0 mi East 11.5 mph - N/A   Scattered Clouds
7:58 AM 77.5 °F - 66.2 °F 68% 30.16 in 10.0 mi ESE 12.7 mph - N/A   Scattered Clouds
8:58 AM 79.5 °F - 66.0 °F 63% 30.16 in 10.0 mi ESE 11.5 mph - N/A   Clear
9:58 AM 80.8 °F 83.2 °F 66.9 °F 63% 30.17 in 10.0 mi ESE 10.4 mph - N/A   Clear
10:58 AM 82.4 °F 85.2 °F 67.8 °F 61% 30.17 in 10.0 mi ESE 11.5 mph - N/A   Clear
11:58 AM 83.3 °F 85.7 °F 66.6 °F 57% 30.14 in 10.0 mi SE 13.8 mph - N/A   Clear
12:58 PM 84.0 °F 87.0 °F 67.8 °F 58% 30.12 in 10.0 mi SE 13.8 mph - N/A   Clear
1:58 PM 83.7 °F 86.5 °F 67.5 °F 58% 30.09 in 10.0 mi SE 13.8 mph - N/A   Clear
2:58 PM 83.7 °F 86.7 °F 68.2 °F 59% 30.06 in 10.0 mi SE 13.8 mph - N/A   Clear
3:58 PM 82.9 °F 86.7 °F 69.8 °F 64% 30.04 in 10.0 mi SE 13.8 mph - N/A   Clear
4:58 PM 81.9 °F 85.2 °F 68.9 °F 65% 30.04 in 10.0 mi SSE 12.7 mph - N/A   Partly Cloudy
5:58 PM 79.9 °F - 69.6 °F 71% 30.04 in 10.0 mi SSE 13.8 mph - N/A   Clear
6:58 PM 78.6 °F - 69.3 °F 73% 30.04 in 10.0 mi SSE 13.8 mph - N/A   Clear
7:58 PM 78.4 °F - 69.6 °F 74% 30.04 in 10.0 mi SSE 11.5 mph - N/A   Clear
8:58 PM 78.6 °F - 70.7 °F 77% 30.04 in 10.0 mi SSE 13.8 mph - N/A   Clear
9:58 PM 78.4 °F - 71.6 °F 79% 30.06 in 10.0 mi SSE 10.4 mph - N/A   Clear
10:58 PM 78.3 °F - 71.8 °F 80% 30.04 in 10.0 mi SSE 8.1 mph - N/A   Clear
11:58 PM 78.6 °F - 72.5 °F 81% 30.04 in 10.0 mi SSE 12.7 mph - N/A   Mostly Cloudy